Weather History for Monument Pass, CO

Change the Weather History Date:

Wednesday, July 17, 2013

  Actual Average (KAPA) Record (KAPA)
Temperature  
Mean Temperature 64 °F -  
Max Temperature 77 °F 86 °F 99 °F (2003)
Min Temperature 51 °F 57 °F 54 °F (2014)
Degree Days  
Heating Degree Days 1    
Growing Degree Days 14 (Base 50)    
Moisture  
Dew Point 47 °F    
Average Humidity 59    
Maximum Humidity 94    
Minimum Humidity 28    
Precipitation  
Precipitation 0.00 in - - ()
Sea Level Pressure  
Sea Level Pressure 30.36 in    
Wind  
Wind Speed 20 mph (South)    
Max Wind Speed 30 mph    
Max Gust Speed 37 mph    
Visibility 10 miles    
Events      
Averages and records for this station are not official NWS values.
T = Trace of Precipitation, MM = Missing Value Source: NWS Daily Summary

Daily Weather History Graph

Daily Weather History Graph

Search for Another Location

Airport:

Trip Planner

Search our weather history database for the weather conditions in past years. The results will help you decide how hot, cold, wet, or windy it might be!

Date:

Astronomy

Jul. 17, 2013 Rise Set
Actual Time 5:46 AM MDT 8:22 PM MDT
Civil Twilight 5:15 AM MDT 8:53 PM MDT
Nautical Twilight 4:36 AM MDT 9:32 PM MDT
Astronomical Twilight 3:52 AM MDT 10:15 PM MDT
Moon 3:15 PM MDT (7/17) 12:54 AM MDT (7/17)
Length of Visible Light 15h 38m
Length of Day
14h 36m
Waxing Gibbous, 68% of the Moon is Illuminated
Jul 17
Waxing Gibbous
Jul 22
Full
Jul 29
Last Quarter
Aug 6
New
Aug 14
First Quarter

Hourly Weather History & Observations

Time (MDT) Temp. Dew Point Humidity Pressure Visibility Wind Dir Wind Speed Gust Speed Precip Events Conditions
12:14 AM 55.4 °F 53.6 °F 94% 30.40 in 10.0 mi SSE 19.6 mph 25.3 mph N/A   Mostly Cloudy
12:34 AM 55.4 °F 51.8 °F 88% 30.40 in 10.0 mi South 18.4 mph - N/A   Scattered Clouds
12:54 AM 53.6 °F 51.8 °F 94% 30.40 in 10.0 mi South 17.3 mph 23.0 mph N/A   Clear
1:14 AM 53.6 °F 51.8 °F 94% 30.39 in 10.0 mi South 19.6 mph 23.0 mph N/A   Scattered Clouds
1:34 AM 55.4 °F 51.8 °F 88% 30.39 in 10.0 mi South 17.3 mph 25.3 mph N/A   Mostly Cloudy
1:54 AM 53.6 °F 51.8 °F 94% 30.39 in 10.0 mi South 16.1 mph 21.9 mph N/A   Scattered Clouds
2:14 AM 53.6 °F 51.8 °F 94% 30.38 in 10.0 mi South 17.3 mph 24.2 mph N/A   Scattered Clouds
2:34 AM 53.6 °F 50.0 °F 88% 30.38 in 10.0 mi South 17.3 mph 23.0 mph N/A   Clear
2:54 AM 53.6 °F 50.0 °F 88% 30.38 in 10.0 mi South 13.8 mph 21.9 mph N/A   Clear
3:14 AM 53.6 °F 50.0 °F 88% 30.37 in 10.0 mi South 19.6 mph 23.0 mph N/A   Clear
3:33 AM 53.6 °F 50.0 °F 88% 30.37 in 10.0 mi South 16.1 mph - N/A   Clear
3:54 AM 53.6 °F 50.0 °F 88% 30.37 in 10.0 mi South 13.8 mph - N/A   Clear
4:14 AM 53.6 °F 50.0 °F 88% 30.37 in 10.0 mi South 16.1 mph - N/A   Clear
4:34 AM 51.8 °F 50.0 °F 94% 30.36 in 10.0 mi South 16.1 mph 20.7 mph N/A   Clear
4:54 AM 51.8 °F 50.0 °F 94% 30.36 in 10.0 mi South 16.1 mph - N/A   Clear
5:14 AM 51.8 °F 50.0 °F 94% 30.37 in 10.0 mi SSW 10.4 mph - N/A   Clear
5:34 AM 51.8 °F 50.0 °F 94% 30.37 in 10.0 mi SSW 10.4 mph - N/A   Clear
5:54 AM 51.8 °F 50.0 °F 94% 30.38 in 7.0 mi SSW 10.4 mph - N/A   Clear
6:14 AM 51.8 °F 50.0 °F 94% 30.38 in 7.0 mi SSW 10.4 mph - N/A   Clear
6:34 AM 53.6 °F 50.0 °F 88% 30.38 in 10.0 mi South 16.1 mph 19.6 mph N/A   Clear
6:54 AM 53.6 °F 50.0 °F 88% 30.39 in 10.0 mi South 18.4 mph 24.2 mph N/A   Clear
7:14 AM 55.4 °F 51.8 °F 88% 30.38 in 10.0 mi South 17.3 mph - N/A   Clear
7:34 AM 57.2 °F 50.0 °F 77% 30.38 in 10.0 mi South 20.7 mph 24.2 mph N/A   Clear
7:54 AM 59.0 °F 50.0 °F 72% 30.39 in 10.0 mi South 17.3 mph 24.2 mph N/A   Clear
8:14 AM 59.0 °F 50.0 °F 72% 30.38 in 10.0 mi South 20.7 mph - N/A   Clear
8:34 AM 60.8 °F 50.0 °F 68% 30.39 in 10.0 mi South 18.4 mph 26.5 mph N/A   Clear
8:54 AM 62.6 °F 50.0 °F 63% 30.39 in 10.0 mi South 20.7 mph 28.8 mph N/A   Clear
9:13 AM 62.6 °F 50.0 °F 63% 30.39 in 10.0 mi South 21.9 mph 27.6 mph N/A   Clear
9:33 AM 64.4 °F 50.0 °F 59% 30.39 in 10.0 mi South 23.0 mph 29.9 mph N/A   Clear
9:54 AM 64.4 °F 50.0 °F 59% 30.39 in 10.0 mi South 24.2 mph 28.8 mph N/A   Clear
10:14 AM 66.2 °F 48.2 °F 52% 30.39 in 10.0 mi South 24.2 mph 32.2 mph N/A   Clear
10:34 AM 68.0 °F 50.0 °F 52% 30.39 in 10.0 mi South 24.2 mph 29.9 mph N/A   Clear
10:54 AM 68.0 °F 48.2 °F 49% 30.39 in 10.0 mi South 25.3 mph 29.9 mph N/A   Clear
11:14 AM 69.8 °F 50.0 °F 49% 30.39 in 10.0 mi South 27.6 mph 31.1 mph N/A   Clear
11:34 AM 69.8 °F 48.2 °F 46% 30.39 in 10.0 mi South 21.9 mph 32.2 mph N/A   Clear
11:54 AM 71.6 °F 48.2 °F 43% 30.39 in 10.0 mi South 23.0 mph 28.8 mph N/A   Clear
12:14 PM 71.6 °F 46.4 °F 41% 30.38 in 10.0 mi South 21.9 mph 29.9 mph N/A   Clear
12:34 PM 71.6 °F 46.4 °F 41% 30.38 in 10.0 mi South 24.2 mph 29.9 mph N/A   Clear
12:54 PM 71.6 °F 46.4 °F 41% 30.38 in 10.0 mi South 23.0 mph 32.2 mph N/A   Clear
1:14 PM 73.4 °F 42.8 °F 33% 30.37 in 10.0 mi South 25.3 mph 32.2 mph N/A   Clear
1:34 PM 75.2 °F 44.6 °F 34% 30.37 in 10.0 mi South 25.3 mph 33.4 mph N/A   Clear
1:54 PM 73.4 °F 44.6 °F 36% 30.37 in 10.0 mi South 25.3 mph 32.2 mph N/A   Clear
2:14 PM 75.2 °F 44.6 °F 34% 30.36 in 10.0 mi South 26.5 mph 34.5 mph N/A   Clear
2:34 PM 75.2 °F 44.6 °F 34% 30.36 in 10.0 mi South 23.0 mph 32.2 mph N/A   Clear
2:53 PM 77.0 °F 42.8 °F 29% 30.35 in 10.0 mi South 24.2 mph 32.2 mph N/A   Clear
3:13 PM 77.0 °F 44.6 °F 32% 30.35 in 10.0 mi South 25.3 mph 32.2 mph N/A   Clear
3:34 PM 77.0 °F 42.8 °F 29% 30.35 in 10.0 mi South 25.3 mph 34.5 mph N/A   Clear
3:54 PM 77.0 °F 42.8 °F 29% 30.34 in 10.0 mi SSE 27.6 mph 34.5 mph N/A   Clear
4:14 PM 77.0 °F 41.0 °F 28% 30.33 in 10.0 mi South 28.8 mph 36.8 mph N/A   Clear
4:34 PM 77.0 °F 41.0 °F 28% 30.33 in 10.0 mi South 25.3 mph 34.5 mph N/A   Clear
4:54 PM 77.0 °F 41.0 °F 28% 30.32 in 10.0 mi SSE 29.9 mph 35.7 mph N/A   Clear
5:13 PM 77.0 °F 42.8 °F 29% 30.32 in 10.0 mi South 24.2 mph 33.4 mph N/A   Clear
5:34 PM 77.0 °F 42.8 °F 29% 30.32 in 10.0 mi South 26.5 mph 32.2 mph N/A   Clear
5:54 PM 75.2 °F 42.8 °F 31% 30.31 in 10.0 mi South 26.5 mph 33.4 mph N/A   Clear
6:14 PM 75.2 °F 42.8 °F 31% 30.31 in 10.0 mi South 24.2 mph 35.7 mph N/A   Clear
6:34 PM 75.2 °F 42.8 °F 31% 30.31 in 10.0 mi South 24.2 mph 33.4 mph N/A   Clear
6:54 PM 73.4 °F 42.8 °F 33% 30.32 in 10.0 mi South 18.4 mph 32.2 mph N/A   Clear
7:14 PM 73.4 °F 42.8 °F 33% 30.32 in 10.0 mi South 23.0 mph 29.9 mph N/A   Clear
7:33 PM 71.6 °F 44.6 °F 38% 30.32 in 10.0 mi South 19.6 mph 25.3 mph N/A   Clear
7:53 PM 69.8 °F 46.4 °F 43% 30.32 in 10.0 mi South 20.7 mph 26.5 mph N/A   Clear
8:14 PM 68.0 °F 46.4 °F 46% 30.32 in 10.0 mi South 17.3 mph 25.3 mph N/A   Clear
8:34 PM 66.2 °F 46.4 °F 49% 30.33 in 10.0 mi South 20.7 mph 24.2 mph N/A   Clear
8:54 PM 66.2 °F 46.4 °F 49% 30.33 in 10.0 mi South 21.9 mph 28.8 mph N/A   Clear
9:14 PM 64.4 °F 48.2 °F 56% 30.33 in 10.0 mi South 21.9 mph 27.6 mph N/A   Clear
9:34 PM 64.4 °F 48.2 °F 56% 30.34 in 10.0 mi South 20.7 mph 27.6 mph N/A   Clear
9:53 PM 64.4 °F 46.4 °F 52% 30.34 in 10.0 mi South 21.9 mph 28.8 mph N/A   Clear
10:14 PM 64.4 °F 46.4 °F 52% 30.34 in 10.0 mi South 21.9 mph 27.6 mph N/A   Clear
10:34 PM 62.6 °F 46.4 °F 55% 30.34 in 10.0 mi South 20.7 mph 29.9 mph N/A   Clear
10:53 PM 62.6 °F 46.4 °F 55% 30.34 in 10.0 mi South 25.3 mph 32.2 mph N/A   Clear
11:14 PM 62.6 °F 46.4 °F 55% 30.33 in 10.0 mi South 23.0 mph 29.9 mph N/A   Clear
11:34 PM 60.8 °F 46.4 °F 59% 30.33 in 10.0 mi South 21.9 mph 29.9 mph N/A   Clear
11:54 PM 60.8 °F 46.4 °F 59% 30.33 in 10.0 mi South 20.7 mph 27.6 mph N/A   Clear